Overview Statistics Trail Chart Weather Telemetry Raw packets
 

This is the latest recevied weather packets stored in our database for station/object IU3OVK-13. If no packets are shown the sender has not sent any weather packets the latest 10 day(s).

<< 5 6 7 8 9 10 11 >>
Time Temp. Humidity Pressure Rain* Wind** Luminosity Snow
1788505192 35.56° C 99% 1012.2 hPa - - - -
1788504572 32.22° C 99% 1012.9 hPa - - - -
1788503951 31.11° C 99% 1014.3 hPa - - - -
1788503331 32.78° C 99% 1013.3 hPa - - - -
1788502711 30.56° C 99% 1013.9 hPa - - - -
1788502091 30.56° C 99% 1013.9 hPa - - - -
1788501469 19.44° C 99% 1013 hPa - - - -
1788500848 18.33° C 99% 1013.4 hPa - - - -
1788498988 17.78° C 99% 1012.7 hPa - - - -
1788498368 17.22° C 99% 1012.5 hPa - - - -
1788497748 17.22° C 99% 1012.2 hPa - - - -
1788497127 16.11° C 99% 1012.3 hPa - - - -
1788495887 17.78° C 99% 1012.4 hPa - - - -
1788495267 17.22° C 99% 1012.4 hPa - - - -
1788494647 17.22° C 99% 1012.5 hPa - - - -
1788494026 17.78° C 99% 1012.5 hPa - - - -
1788493406 18.33° C 99% 1012.4 hPa - - - -
1788492786 18.33° C 99% 1012.2 hPa - - - -
1788492166 17.78° C 99% 1012.4 hPa - - - -
1788491546 17.78° C 99% 1012.2 hPa - - - -
1788490926 17.78° C 99% 1012.3 hPa - - - -
1788490305 17.78° C 99% 1012.2 hPa - - - -
1788489685 17.22° C 99% 1012.5 hPa - - - -
1788489065 18.33° C 99% 1012.4 hPa - - - -
1788488445 18.33° C 99% 1012.2 hPa - - - -

* Rain since midnight (hover to see other rain measurements)
** Current wind speed in m/s (hover to see current wind gust speed)